This is the latest recevied weather packets stored in our database for station/object WB4YDL. If no packets are shown the sender has not sent any weather packets the latest 10 day(s).
| Time | Temp. | Humidity | Pressure | Rain* | Wind** | Luminosity | Snow |
|---|---|---|---|---|---|---|---|
| 1777838900 | 21.11° C | 41% | 1012.3 hPa | 0 mm | - | 655 W/m² | - |
| 1777838596 | 21.11° C | 40% | 1012.5 hPa | 0 mm | - | 666 W/m² | - |
| 1777838293 | 21.11° C | 41% | 1012.5 hPa | 0 mm | - | 677 W/m² | - |
| 1777837990 | 21.11° C | 40% | 1012.5 hPa | 0 mm | - | 688 W/m² | - |
| 1777837687 | 20.56° C | 41% | 1012.8 hPa | 0 mm | - | 700 W/m² | - |
| 1777837383 | 21.11° C | 42% | 1012.9 hPa | 0 mm | - | 709 W/m² | - |
| 1777837079 | 20.56° C | 41% | 1013.2 hPa | 0 mm | - | 721 W/m² | - |
| 1777836775 | 21.11° C | 39% | 1013.2 hPa | 0 mm | - | 733 W/m² | - |
| 1777836471 | 21.11° C | 41% | 1013.2 hPa | 0 mm | - | 743 W/m² | - |
| 1777836166 | 20.56° C | 43% | 1013.7 hPa | 0 mm | - | 750 W/m² | - |
| 1777835863 | 20° C | 44% | 1013.7 hPa | 0 mm | - | 760 W/m² | - |
| 1777835560 | 20° C | 41% | 1013.6 hPa | 0 mm | - | 768 W/m² | - |
| 1777835257 | 20.56° C | 40% | 1013.7 hPa | 0 mm | - | 778 W/m² | - |
| 1777834954 | 20° C | 42% | 1013.7 hPa | 0 mm | - | 786 W/m² | - |
| 1777834651 | 20.56° C | 40% | 1013.4 hPa | 0 mm | - | 788 W/m² | - |
| 1777834347 | 20.56° C | 42% | 1013.8 hPa | 0 mm | - | 793 W/m² | - |
| 1777834042 | 20° C | 44% | 1013.9 hPa | 0 mm | - | 798 W/m² | - |
| 1777833738 | 20° C | 43% | 1014 hPa | 0 mm | - | 804 W/m² | - |
| 1777833434 | 20° C | 44% | 1014.2 hPa | 0 mm | - | 809 W/m² | - |
| 1777833132 | 20° C | 42% | 1014.4 hPa | 0 mm | - | 808 W/m² | - |
| 1777832830 | 19.44° C | 44% | 1014.4 hPa | 0 mm | - | 819 W/m² | - |
| 1777832529 | 18.89° C | 43% | 1014.2 hPa | 0 mm | - | 820 W/m² | - |
| 1777832224 | 19.44° C | 44% | 1014.7 hPa | 0 mm | - | 825 W/m² | - |
| 1777831921 | 19.44° C | 46% | 1014.6 hPa | 0 mm | - | 830 W/m² | - |
| 1777831618 | 18.89° C | 47% | 1014.5 hPa | 0 mm | - | 831 W/m² | - |
* Rain latest hour (hover to see other rain measurements)
** Current wind speed in m/s (hover to see current wind gust speed)